DMC3-FM3

Last updated on Thu Jul 03 2025 00:02:36 GMT+0000 (Coordinated Universal Time)

1 40717U 15032C 25183.57555735 .00000459 00000+0 59731-4 0 9997 2 40717 97.7071 59.3788 0006658 121.8049 238.3815 14.85104759538013
UTC large
Height (km)
Speed (km/s)
/
Latitude / Longitude
Inclination (degrees)
Orbital Period (minutes)
Azimuth
Elevation
Range (km)
Doppler Factor

Next 0 passes for location: London (51.5072 / 0.1276)

Sorry there are no passes over London.